Philadelphia, PA

12:57 AM EST on December 08, 2016 (GMT -0500)
Philadelphia International

Weather History for KPHL - March, 2014

Change the Weather History Date:

Monday, March 24, 2014

  Actual Average Record
Temperature  
Mean Temperature 30 °F 46 °F  
Max Temperature 36 °F 56 °F 76 °F (1988)
Min Temperature 23 °F 37 °F 15 °F (1896)
Degree Days  
Heating Degree Days 35 19  
Month to date heating degree days 640 543  
Since 1 July heating degree days 4296 4025  
Cooling Degree Days 0 0  
Month to date cooling degree days 0 0  
Year to date cooling degree days 0 0  
Moisture  
Dew Point 2 °F    
Average Humidity 32    
Maximum Humidity 42    
Minimum Humidity 22    
Precipitation  
Precipitation 0.00 in 0.14 in 1.24 in (1989)
Month to date precipitation 1.57 2.87  
Year to date precipitation 10.24 8.55  
Snow  
Snow 0.00 in 0.10 in 2.20 in (1990)
Month to date snowfall 8.1 2.6  
Since 1 July snowfall 67.6 21.6  
Snow Depth 0.00 in    
Sea Level Pressure  
Sea Level Pressure 30.22 in    
Wind  
Wind Speed 11 mph (NNW)    
Max Wind Speed 22 mph    
Max Gust Speed 29 mph    
Visibility 10 miles    
Events      
T = Trace of Precipitation, MM = Missing Value Source: NWS Daily Summary

Daily Weather History Graph

Daily Weather History Graph

Search for Another Location

Airport or City:

Trip Planner

Search our weather history database for the weather conditions in past years. The results will help you decide how hot, cold, wet, or windy it might be!

Date:

Astronomy

Mar. 24, 2014 Rise Set
Actual Time 6:57 AM EDT 7:17 PM EDT
Civil Twilight 6:30 AM EDT 7:44 PM EDT
Nautical Twilight 5:59 AM EDT 8:15 PM EDT
Astronomical Twilight 5:26 AM EDT 8:48 PM EDT
Moon 2:25 AM EDT (3/24) 12:40 PM EDT (3/24)
Length of Visible Light 13h 13m
Length of Day
12h 19m
Last Quarter, 43% of the Moon is Illuminated
Mar 24
Last Quarter
Mar 30
New
Apr 7
First Quarter
Apr 15
Full
Apr 22
Last Quarter

Hourly Weather History & Observations

Time (EDT) Temp. Windchill Dew Point Humidity Pressure Visibility Wind Dir Wind Speed Gust Speed Precip Events Conditions
12:54 AM 28.9 °F 17.3 °F 6.1 °F 38% 30.19 in 10.0 mi NNW 16.1 mph 27.6 mph N/A   Clear
1:54 AM 27.0 °F 14.3 °F 7.0 °F 43% 30.21 in 10.0 mi North 17.3 mph - N/A   Clear
2:54 AM 26.1 °F 12.7 °F 6.1 °F 43% 30.22 in 10.0 mi North 18.4 mph - N/A   Partly Cloudy
3:54 AM 25.0 °F 11.3 °F 5.0 °F 43% 30.23 in 10.0 mi North 18.4 mph - N/A   Partly Cloudy
4:54 AM 24.1 °F 12.5 °F 3.9 °F 42% 30.24 in 10.0 mi North 12.7 mph 23.0 mph N/A   Scattered Clouds
5:54 AM 24.1 °F 12.0 °F 3.9 °F 42% 30.26 in 10.0 mi North 13.8 mph - N/A   Scattered Clouds
6:54 AM 23.0 °F 10.6 °F 1.0 °F 39% 30.28 in 10.0 mi North 13.8 mph - N/A   Partly Cloudy
7:54 AM 23.0 °F 11.1 °F 1.0 °F 39% 30.30 in 10.0 mi NNW 12.7 mph 21.9 mph N/A   Partly Cloudy
8:54 AM 25.0 °F 14.8 °F 1.0 °F 36% 30.32 in 10.0 mi NW 10.4 mph - N/A   Partly Cloudy
9:54 AM 26.1 °F 15.0 °F -0.0 °F 32% 30.31 in 10.0 mi NNW 12.7 mph 17.3 mph N/A   Partly Cloudy
10:54 AM 28.0 °F 18.6 °F -0.0 °F 30% 30.30 in 10.0 mi North 10.4 mph 21.9 mph N/A   Partly Cloudy
11:54 AM 28.9 °F 21.9 °F 1.0 °F 30% 30.27 in 10.0 mi WNW 6.9 mph 17.3 mph N/A   Partly Cloudy
12:54 PM 33.1 °F 23.9 °F 1.0 °F 26% 30.25 in 10.0 mi NNW 12.7 mph 19.6 mph N/A   Partly Cloudy
1:54 PM 33.1 °F 23.4 °F -0.0 °F 24% 30.22 in 10.0 mi NW 13.8 mph 23.0 mph N/A   Partly Cloudy
2:54 PM 34.0 °F 24.6 °F 1.0 °F 25% 30.19 in 10.0 mi WNW 13.8 mph 19.6 mph N/A   Partly Cloudy
3:54 PM 35.1 °F 26.4 °F -0.0 °F 23% 30.16 in 10.0 mi WNW 12.7 mph 19.6 mph N/A   Partly Cloudy
4:54 PM 36.0 °F 27.5 °F -0.9 °F 21% 30.15 in 10.0 mi WNW 12.7 mph 24.2 mph N/A   Mostly Cloudy
5:54 PM 35.1 °F 25.2 °F -0.0 °F 23% 30.16 in 10.0 mi West 16.1 mph - N/A   Mostly Cloudy
6:54 PM 35.1 °F 26.4 °F -0.0 °F 23% 30.17 in 10.0 mi NW 12.7 mph 20.7 mph N/A   Scattered Clouds
7:54 PM 34.0 °F 28.0 °F -0.0 °F 24% 30.18 in 10.0 mi NW 6.9 mph - N/A   Scattered Clouds
8:54 PM 32.0 °F 26.4 °F -0.0 °F 26% 30.19 in 10.0 mi NNW 5.8 mph - N/A   Partly Cloudy
9:54 PM 33.1 °F - -0.0 °F 24% 30.19 in 10.0 mi Calm Calm - N/A   Partly Cloudy
10:54 PM 32.0 °F 28.7 °F -0.9 °F 24% 30.19 in 10.0 mi North 3.5 mph - N/A   Partly Cloudy
11:54 PM 32.0 °F - 1.0 °F 27% 30.18 in 10.0 mi Calm Calm - N/A   Scattered Clouds